Location: Jalan Sepang
(2.8072°N, 101.8021°E)
Time: 05:49:43
(UTC+00:00)

Cosmos 1697 Rocket - Pass Details

Date: 15 May 2026
Orbit: 833 x 841 km, 71.0° (Epoch: 7 June)

Event Time Altitude Azimuth Distance (km) Brightness Sun altitude
Rises 12:29:41 0° 11° (N) 3,362 6.0 -18.0°
Reaches altitude 10° 12:32:45 10° 28° (NNE) 2,431 5.0 -18.7°
Enters shadow 12:35:46 19° 60° (ENE) 1,870 4.1 -19.4°
